Flag for Qatar Weather past 2 weeks in Al Khor, Qatar

Now
102 °F

Sunny.


Feels Like: 122 °F
Forecast: 83 / 103 °F
Wind: 10 mph from East

Location: Doha International Airport

Current Time: Sep 1, 2014 at 3:03:02 PM

Latest Report: Sep 1, 2014 at 2:30 PM


Visibility: 10 mi

Pressure: 29.50 "Hg

Humidity: 48%

Dew point: 79 °F

Location of Al KhorLocation

Historic Weather in Al Khor — Graph

°F

Al Khor temperature yesterday

Maximum temperature yesterday: 108 °F (at 11:30 AM)
Minimum temperature yesterday: 90 °F (at 3:00 AM)
Average temperature yesterday: 96 °F

Past Weeks' High & Low Weather Summary

 TemperatureHumidityPressure
High109 °F (Aug 21, 11:00 AM)80% (Aug 17, 9:00 PM)29.77 "Hg (Aug 17, 9:00 PM)
Low90 °F (Aug 28, 3:30 AM)20% (Aug 30, 11:00 AM)29.47 "Hg (Aug 17, 2:00 PM)
Average96 °F61%29.60 "Hg
* Reported Aug 17 1:00 PM — Sep 1 1:30 PM, Al Khor, Weather by CustomWeather, © 2014

Note: Actual official high and low records may vary slightly from our data, if they occured in-between our weather recording intervals... More about our weather records

Advertising

Al Khor weather history for previous 24 hours

 ConditionsComfort  
Time TempWeatherWind HumidityBarometerVisibility
1:30 PM
Sep 1
102 °FPassing clouds.12 mph42%29.50 "HgN/A
1:00 PM100 °FSunny.12 mph50%29.53 "Hg10 mi
12:00 PM102 °FPassing clouds.13 mph51%29.53 "HgN/A
11:00 AM104 °FSunny.6 mph33%29.56 "Hg10 mi
10:00 AM100 °FPassing clouds.6 mph45%29.56 "HgN/A
9:00 AM97 °FPassing clouds.6 mph56%29.59 "HgN/A
8:00 AM95 °FPassing clouds.5 mph60%29.59 "HgN/A
7:00 AM91 °FClear.3 mph75%29.56 "Hg6 mi
6:30 AM90 °FClear.5 mph79%29.56 "Hg5 mi
6:00 AM90 °FClear.3 mph79%29.53 "Hg5 mi
5:30 AM90 °FClear.3 mph79%29.53 "Hg5 mi
5:00 AM90 °FClear.3 mph79%29.53 "Hg6 mi
4:30 AM90 °FClear.3 mph79%29.53 "Hg10 mi
4:00 AM90 °FPassing clouds.3 mph75%29.53 "HgN/A
3:30 AM90 °FClear.3 mph79%29.53 "Hg10 mi
2:30 AM90 °FClear.5 mph79%29.53 "Hg10 mi
2:00 AM90 °FPassing clouds.3 mph75%29.53 "HgN/A
1:30 AM90 °FClear.2 mph79%29.50 "Hg10 mi
1:00 AM90 °FClear.3 mph79%29.53 "Hg10 mi
12:00 AM91 °FClear.3 mph75%29.53 "Hg10 mi
11:30 PM
Aug 31
91 °FClear.2 mph75%29.53 "Hg10 mi
11:00 PM91 °FPassing clouds.3 mph75%29.53 "HgN/A
10:30 PM91 °FClear.2 mph75%29.56 "Hg10 mi
10:00 PM91 °FClear.No wind75%29.56 "Hg10 mi
9:30 PM91 °FClear.2 mph75%29.56 "Hg10 mi
9:00 PM93 °FClear.5 mph71%29.56 "Hg10 mi
8:00 PM93 °FClear.5 mph71%29.56 "Hg10 mi
7:00 PM95 °FClear.7 mph67%29.56 "Hg10 mi
6:00 PM95 °FClear.7 mph63%29.56 "Hg10 mi
5:30 PM97 °FPassing clouds.7 mph60%29.56 "HgN/A
5:00 PM97 °FSunny.10 mph60%29.56 "Hg10 mi
4:30 PM97 °FPassing clouds.10 mph63%29.56 "HgN/A
4:00 PM99 °FSunny.10 mph57%29.56 "Hg10 mi
3:00 PM100 °FPassing clouds.9 mph47%29.56 "HgN/A
Weather by CustomWeather, © 2014

See weather overviewHow to use our weather pages